Time,TemperatureF,DewpointF,PressureIn,WindDirection,WindDirectionDegrees,WindSpeedMPH,WindSpeedGustMPH,Humidity,HourlyPrecipIn,Conditions,Clouds,dailyrainin,SoftwareType,DateUTC
2013-02-22 00:10:00,26.5,13.0,30.33,ESE,123,0.0,2.0,57,0.00,,,0.00,weatherlink.com 1.10,2013-02-22 05:10:00,
2013-02-22 00:25:00,26.3,13.0,30.33,ENE,67,0.0,1.0,58,0.00,,,0.00,weatherlink.com 1.10,2013-02-22 05:25:00,
2013-02-22 00:40:00,26.0,13.0,30.33,ENE,67,0.0,0.0,59,0.00,,,0.00,weatherlink.com 1.10,2013-02-22 05:40:00,
2013-02-22 00:55:00,25.9,14.0,30.33,ENE,67,0.0,0.0,60,0.00,,,0.00,weatherlink.com 1.10,2013-02-22 05:55:00,
2013-02-22 01:10:00,25.8,14.0,30.33,ENE,67,0.0,0.0,61,0.00,,,0.00,weatherlink.com 1.10,2013-02-22 06:10:00,
2013-02-22 01:25:00,25.7,14.0,30.34,ENE,67,0.0,0.0,61,0.00,,,0.00,weatherlink.com 1.10,2013-02-22 06:25:00,
2013-02-22 01:40:00,26.2,14.0,30.35,South,190,4.0,5.0,59,0.00,,,0.00,weatherlink.com 1.10,2013-02-22 06:40:00,
2013-02-22 01:55:00,26.3,14.0,30.35,East,82,0.0,2.0,61,0.00,,,0.00,weatherlink.com 1.10,2013-02-22 06:55:00,
2013-02-22 02:10:00,25.8,15.0,30.35,NE,43,0.0,3.0,63,0.00,,,0.00,weatherlink.com 1.10,2013-02-22 07:10:00,
2013-02-22 02:25:00,25.5,14.0,30.35,NE,43,0.0,0.0,62,0.00,,,0.00,weatherlink.com 1.10,2013-02-22 07:25:00,
2013-02-22 02:40:00,25.4,15.0,30.35,NE,43,0.0,0.0,65,0.00,,,0.00,weatherlink.com 1.10,2013-02-22 07:40:00,
2013-02-22 02:55:00,25.2,15.0,30.35,NE,43,0.0,0.0,65,0.00,,,0.00,weatherlink.com 1.10,2013-02-22 07:55:00,
2013-02-22 03:10:00,25.2,15.0,30.36,NE,43,1.0,2.0,66,0.00,,,0.00,weatherlink.com 1.10,2013-02-22 08:10:00,
2013-02-22 03:25:00,25.1,16.0,30.34,East,82,1.0,2.0,67,0.00,,,0.00,weatherlink.com 1.10,2013-02-22 08:25:00,
2013-02-22 03:40:00,25.7,15.0,30.34,SSW,192,1.0,2.0,63,0.00,,,0.00,weatherlink.com 1.10,2013-02-22 08:40:00,
2013-02-22 03:55:00,25.6,14.0,30.33,ESE,117,0.0,2.0,63,0.00,,,0.00,weatherlink.com 1.10,2013-02-22 08:55:00,
2013-02-22 04:10:00,25.6,14.0,30.31,NE,50,0.0,3.0,61,0.00,,,0.00,weatherlink.com 1.10,2013-02-22 09:10:00,
2013-02-22 04:25:00,24.7,15.0,30.30,NNE,16,0.0,5.0,66,0.00,,,0.00,weatherlink.com 1.10,2013-02-22 09:25:00,
2013-02-22 04:40:00,24.4,15.0,30.30,West,265,0.0,2.0,67,0.00,,,0.00,weatherlink.com 1.10,2013-02-22 09:40:00,
2013-02-22 04:55:00,24.8,15.0,30.30,ESE,111,0.0,2.0,65,0.00,,,0.00,weatherlink.com 1.10,2013-02-22 09:55:00,
2013-02-22 05:10:00,25.5,14.0,30.30,ESE,111,0.0,2.0,63,0.00,,,0.00,weatherlink.com 1.10,2013-02-22 10:10:00,
2013-02-22 05:25:00,26.1,14.0,30.30,NE,47,0.0,3.0,61,0.00,,,0.00,weatherlink.com 1.10,2013-02-22 10:25:00,
2013-02-22 05:40:00,26.2,15.0,30.32,SW,218,1.0,2.0,62,0.00,,,0.00,weatherlink.com 1.10,2013-02-22 10:40:00,
2013-02-22 05:55:00,26.1,15.0,30.32,WNW,282,0.0,3.0,64,0.00,,,0.00,weatherlink.com 1.10,2013-02-22 10:55:00,
2013-02-22 06:10:00,26.0,16.0,30.32,North,360,0.0,1.0,65,0.00,,,0.00,weatherlink.com 1.10,2013-02-22 11:10:00,
2013-02-22 06:25:00,26.0,16.0,30.31,NNW,342,0.0,2.0,65,0.00,,,0.00,weatherlink.com 1.10,2013-02-22 11:25:00,
2013-02-22 06:40:00,25.7,16.0,30.31,NE,55,1.0,2.0,68,0.00,,,0.00,weatherlink.com 1.10,2013-02-22 11:40:00,
2013-02-22 06:55:00,25.1,18.0,30.31,NNE,30,0.0,2.0,73,0.00,,,0.00,weatherlink.com 1.10,2013-02-22 11:55:00,
2013-02-22 07:10:00,24.2,19.0,30.30,NE,43,1.0,2.0,80,0.00,,,0.00,weatherlink.com 1.10,2013-02-22 12:10:00,
2013-02-22 07:25:00,23.3,20.0,30.29,NE,36,0.0,2.0,85,0.00,,,0.00,weatherlink.com 1.10,2013-02-22 12:25:00,
2013-02-22 07:40:00,23.3,20.0,30.29,NE,51,0.0,2.0,86,0.00,,,0.00,weatherlink.com 1.10,2013-02-22 12:40:00,
2013-02-22 07:55:00,23.4,20.0,30.29,ENE,59,0.0,0.0,87,0.00,,,0.00,weatherlink.com 1.10,2013-02-22 12:55:00,
2013-02-22 08:10:00,23.9,21.0,30.28,NNW,333,1.0,2.0,87,0.00,,,0.00,weatherlink.com 1.10,2013-02-22 13:10:00,
2013-02-22 08:25:00,24.4,20.0,30.28,NE,40,1.0,2.0,83,0.00,,,0.00,weatherlink.com 1.10,2013-02-22 13:25:00,
2013-02-22 08:40:00,24.9,20.0,30.29,NNW,336,0.0,1.0,82,0.00,,,0.00,weatherlink.com 1.10,2013-02-22 13:40:00,
2013-02-22 08:55:00,25.3,21.0,30.29,NNW,329,1.0,2.0,82,0.00,,,0.00,weatherlink.com 1.10,2013-02-22 13:55:00,
2013-02-22 09:10:00,25.2,21.0,30.29,WSW,250,2.0,3.0,83,0.00,,,0.00,weatherlink.com 1.10,2013-02-22 14:10:00,
2013-02-22 09:26:00,25.1,21.0,30.29,NW,309,0.0,5.0,84,0.00,,,0.00,weatherlink.com 1.10,2013-02-22 14:26:00,
2013-02-22 09:41:00,24.9,21.0,30.29,NW,325,0.0,5.0,86,0.00,,,0.00,weatherlink.com 1.10,2013-02-22 14:41:00,
2013-02-22 09:56:00,24.5,21.0,30.29,NW,316,2.0,5.0,87,0.00,,,0.00,weatherlink.com 1.10,2013-02-22 14:56:00,
2013-02-22 10:11:00,24.4,21.0,30.29,NW,305,1.0,3.0,88,0.00,,,0.00,weatherlink.com 1.10,2013-02-22 15:11:00,
2013-02-22 10:26:00,24.8,22.0,30.28,NNW,346,2.0,4.0,88,0.00,,,0.00,weatherlink.com 1.10,2013-02-22 15:26:00,
2013-02-22 10:41:00,24.8,22.0,30.27,WNW,302,3.0,6.0,89,0.00,,,0.00,weatherlink.com 1.10,2013-02-22 15:41:00,
2013-02-22 10:56:00,24.7,22.0,30.27,North,9,1.0,3.0,90,0.00,,,0.00,weatherlink.com 1.10,2013-02-22 15:56:00,
2013-02-22 11:11:00,24.8,22.0,30.27,NE,38,3.0,3.0,89,0.00,,,0.00,weatherlink.com 1.10,2013-02-22 16:11:00,
2013-02-22 11:26:00,25.4,22.0,30.27,SSW,203,6.0,8.0,86,0.00,,,0.00,weatherlink.com 1.10,2013-02-22 16:26:00,
2013-02-22 11:41:00,25.9,22.0,30.26,NNE,23,3.0,8.0,86,0.00,,,0.00,weatherlink.com 1.10,2013-02-22 16:41:00,
2013-02-22 11:56:00,26.1,23.0,30.25,NE,51,2.0,4.0,86,0.00,,,0.00,weatherlink.com 1.10,2013-02-22 16:56:00,
2013-02-22 12:11:00,26.3,23.0,30.25,NNE,19,0.0,7.0,86,0.00,,,0.00,weatherlink.com 1.10,2013-02-22 17:11:00,
2013-02-22 12:26:00,26.5,23.0,30.25,NNW,339,2.0,4.0,85,0.00,,,0.00,weatherlink.com 1.10,2013-02-22 17:26:00,
2013-02-22 12:41:00,26.8,23.0,30.24,ENE,59,1.0,7.0,85,0.00,,,0.00,weatherlink.com 1.10,2013-02-22 17:41:00,
2013-02-22 12:56:00,27.1,23.0,30.24,SW,232,0.0,7.0,83,0.00,,,0.00,weatherlink.com 1.10,2013-02-22 17:56:00,
2013-02-22 13:11:00,27.7,23.0,30.23,North,355,2.0,5.0,81,0.00,,,0.00,weatherlink.com 1.10,2013-02-22 18:11:00,
2013-02-22 13:26:00,28.4,23.0,30.22,NNE,30,1.0,7.0,80,0.00,,,0.00,weatherlink.com 1.10,2013-02-22 18:26:00,
2013-02-22 13:41:00,28.8,23.0,30.22,NW,319,1.0,4.0,80,0.00,,,0.00,weatherlink.com 1.10,2013-02-22 18:41:00,
2013-02-22 13:56:00,28.5,23.0,30.22,WNW,283,1.0,5.0,81,0.01,,,0.01,weatherlink.com 1.10,2013-02-22 18:56:00,
2013-02-22 14:11:00,28.7,23.0,30.21,ESE,123,0.0,7.0,79,0.01,,,0.01,weatherlink.com 1.10,2013-02-22 19:11:00,
2013-02-22 14:26:00,29.0,24.0,30.21,NNW,336,0.0,6.0,80,0.02,,,0.02,weatherlink.com 1.10,2013-02-22 19:26:00,
2013-02-22 14:41:00,29.4,24.0,30.21,NNE,25,2.0,3.0,79,0.02,,,0.02,weatherlink.com 1.10,2013-02-22 19:41:00,
2013-02-22 14:56:00,29.6,24.0,30.20,WNW,301,1.0,4.0,79,0.01,,,0.02,weatherlink.com 1.10,2013-02-22 19:56:00,
2013-02-22 15:11:00,29.9,24.0,30.20,NE,40,2.0,3.0,78,0.01,,,0.02,weatherlink.com 1.10,2013-02-22 20:11:00,
2013-02-22 15:26:00,30.4,24.0,30.20,NW,325,0.0,3.0,77,0.01,,,0.03,weatherlink.com 1.10,2013-02-22 20:26:00,
2013-02-22 15:41:00,30.6,24.0,30.20,NNE,16,1.0,4.0,77,0.02,,,0.04,weatherlink.com 1.10,2013-02-22 20:41:00,
2013-02-22 15:56:00,30.8,24.0,30.21,SW,229,3.0,4.0,77,0.02,,,0.04,weatherlink.com 1.10,2013-02-22 20:56:00,
2013-02-22 16:11:00,31.1,24.0,30.21,North,350,1.0,2.0,76,0.02,,,0.04,weatherlink.com 1.10,2013-02-22 21:11:00,
2013-02-22 16:26:00,31.0,24.0,30.20,North,11,3.0,3.0,76,0.01,,,0.04,weatherlink.com 1.10,2013-02-22 21:26:00,
2013-02-22 16:41:00,30.9,24.0,30.20,NNE,13,1.0,4.0,74,0.00,,,0.04,weatherlink.com 1.10,2013-02-22 21:41:00,
2013-02-22 16:56:00,30.5,23.0,30.19,North,5,0.0,3.0,75,0.00,,,0.04,weatherlink.com 1.10,2013-02-22 21:56:00,
2013-02-22 17:11:00,30.0,24.0,30.19,NNE,24,1.0,5.0,77,0.00,,,0.04,weatherlink.com 1.10,2013-02-22 22:11:00,
2013-02-22 17:26:00,29.8,23.0,30.19,NNW,336,0.0,3.0,77,0.00,,,0.04,weatherlink.com 1.10,2013-02-22 22:26:00,
2013-02-22 17:41:00,29.7,23.0,30.19,NE,44,0.0,3.0,77,0.00,,,0.04,weatherlink.com 1.10,2013-02-22 22:41:00,
2013-02-22 17:56:00,29.5,23.0,30.19,NE,46,1.0,4.0,78,0.00,,,0.04,weatherlink.com 1.10,2013-02-22 22:56:00,
2013-02-22 18:12:00,29.3,23.0,30.19,NNE,26,0.0,3.0,78,0.00,,,0.04,weatherlink.com 1.10,2013-02-22 23:12:00,
2013-02-22 18:27:00,29.1,23.0,30.19,NE,44,2.0,3.0,79,0.00,,,0.04,weatherlink.com 1.10,2013-02-22 23:27:00,
2013-02-22 18:42:00,28.8,23.0,30.18,NE,40,2.0,4.0,79,0.00,,,0.04,weatherlink.com 1.10,2013-02-22 23:42:00,
2013-02-22 18:57:00,28.7,23.0,30.18,NE,54,1.0,3.0,80,0.00,,,0.04,weatherlink.com 1.10,2013-02-22 23:57:00,
2013-02-22 19:12:00,28.7,23.0,30.19,NE,52,1.0,3.0,80,0.00,,,0.04,weatherlink.com 1.10,2013-02-23 00:12:00,
2013-02-22 19:27:00,28.5,23.0,30.19,ENE,57,0.0,2.0,81,0.00,,,0.04,weatherlink.com 1.10,2013-02-23 00:27:00,
2013-02-22 19:42:00,28.4,23.0,30.19,NE,34,1.0,3.0,81,0.00,,,0.04,weatherlink.com 1.10,2013-02-23 00:42:00,
2013-02-22 19:57:00,28.4,23.0,30.19,ENE,61,0.0,3.0,81,0.00,,,0.04,weatherlink.com 1.10,2013-02-23 00:57:00,
2013-02-22 20:12:00,28.4,24.0,30.19,NW,321,0.0,2.0,82,0.00,,,0.04,weatherlink.com 1.10,2013-02-23 01:12:00,
2013-02-22 20:27:00,28.3,24.0,30.19,NNE,22,0.0,3.0,82,0.00,,,0.04,weatherlink.com 1.10,2013-02-23 01:27:00,
2013-02-22 20:42:00,28.3,24.0,30.18,NNE,26,0.0,2.0,82,0.00,,,0.04,weatherlink.com 1.10,2013-02-23 01:42:00,
2013-02-22 20:57:00,28.4,24.0,30.18,NNE,30,1.0,2.0,83,0.00,,,0.04,weatherlink.com 1.10,2013-02-23 01:57:00,
2013-02-22 21:12:00,28.6,24.0,30.18,North,11,0.0,2.0,83,0.00,,,0.04,weatherlink.com 1.10,2013-02-23 02:12:00,
2013-02-22 21:27:00,28.7,24.0,30.18,North,10,0.0,3.0,83,0.00,,,0.04,weatherlink.com 1.10,2013-02-23 02:27:00,
2013-02-22 21:42:00,28.6,24.0,30.18,ENE,69,0.0,3.0,84,0.00,,,0.04,weatherlink.com 1.10,2013-02-23 02:42:00,
2013-02-22 21:57:00,28.4,24.0,30.18,ENE,71,1.0,2.0,84,0.00,,,0.04,weatherlink.com 1.10,2013-02-23 02:57:00,
2013-02-22 22:12:00,28.5,24.0,30.18,NE,39,0.0,4.0,84,0.00,,,0.04,weatherlink.com 1.10,2013-02-23 03:12:00,
2013-02-22 22:27:00,28.7,25.0,30.18,ENE,62,1.0,4.0,84,0.00,,,0.04,weatherlink.com 1.10,2013-02-23 03:27:00,
2013-02-22 22:42:00,28.9,25.0,30.17,East,82,1.0,3.0,84,0.00,,,0.04,weatherlink.com 1.10,2013-02-23 03:42:00,
2013-02-22 22:57:00,29.0,25.0,30.17,ENE,69,1.0,7.0,84,0.00,,,0.04,weatherlink.com 1.10,2013-02-23 03:57:00,
2013-02-22 23:12:00,29.1,25.0,30.17,NE,51,2.0,3.0,84,0.00,,,0.04,weatherlink.com 1.10,2013-02-23 04:12:00,
2013-02-22 23:27:00,29.0,25.0,30.16,ESE,111,0.0,5.0,85,0.00,,,0.04,weatherlink.com 1.10,2013-02-23 04:27:00,
2013-02-22 23:42:00,28.9,25.0,30.15,NE,43,3.0,5.0,85,0.00,,,0.04,weatherlink.com 1.10,2013-02-23 04:42:00,
2013-02-22 23:57:00,28.9,25.0,30.14,SSW,194,1.0,5.0,86,0.00,,,0.04,weatherlink.com 1.10,2013-02-23 04:57:00,